Location: Wiler
(46.4041°N, 7.7840°E)
Time: 08:01:41
(UTC+00:00)

Cosmos 2219 Rocket - Pass Details

Date: 09 April 2020
Orbit: 829 x 845 km, 71.0° (Epoch: 01 June)

Event Time Altitude Azimuth Distance (km) Brightness Sun altitude
Rises 22:25:57 0° 341° (NNW) 3,388 6.4 -33.7°
Reaches altitude 10° 22:29:27 10° 3° (N) 2,449 5.3 -33.9°
Maximum altitude 22:32:49 16° 40° (NE) 2,054 4.5 -34.1°
Enters shadow 22:33:57 15° 54° (NE) 2,101 4.4 -34.1°
